#timestamp,LO_Frequency,Hit,StdDev 
1629086415.2,286047004.2,N
1629086435.0,286047003.6,N
1629086435.9,286047003.6,N
1629086455.7,286047005.7,N
1629086475.6,286047004.6,N
1629086495.4,286047005.3,N
1629086515.3,286047005.5,N
1629086535.1,286047003.1,N
1629086536.0,286047003.1,N
1629086555.8,286047004.2,N
1629086575.7,286047003.4,N
1629086595.5,286047005.9,N
1629086615.4,286047004.5,N
1629086635.2,286047005.9,N
1629086655.0,286047007.5,N
1629086655.9,286047007.5,N
1629086675.8,286047008.1,Y
1629086695.6,286047007.2,P
1629086715.5,286047004.9,N
1629086735.3,286047005.7,P
1629086755.1,286047007.2,Y
1629086775.9,286047002.7,P
1629086795.7,286047000.4,N
1629086815.5,286046999.7,N
1629086835.4,286047002.3,N
1629086855.2,286047001.7,N
1629086875.1,286047000.3,N
1629086876.0,286047000.3,N
1629086895.8,286047004.4,N
1629086915.6,286047003.5,N
1629086935.5,286047004.4,N
1629086955.3,286047001.8,N
1629086975.2,286047000.5,N
1629086995.9,286046997.3,N
1629087015.7,286046997.0,N
1629087035.6,286046998.4,N
1629087055.4,286046998.5,N
1629087075.2,286046998.7,N
1629087095.1,286046999.1,N
1629087096.0,286046999.1,N
1629087115.8,286046999.0,N
1629087135.7,286047001.0,N
1629087155.5,286047000.1,N
1629087175.3,286047001.4,N
1629087195.2,286047001.8,N
1629087215.0,286046999.7,N
1629087215.9,286046999.7,N
1629087235.7,286047002.6,N
1629087255.6,286047004.3,N
1629087275.4,286047003.4,N
1629087295.3,286047005.9,N
1629087315.1,286047005.4,N
1629087316.0,286047005.4,N
1629087335.8,286047002.3,N
1629087355.7,286047003.7,N
1629087375.5,286047002.9,N
1629087395.4,286047005.9,N
1629087415.2,286047003.2,N
1629087435.0,286047003.8,N
1629087435.9,286047003.8,N
1629087455.8,286047001.6,N
1629087475.6,286047002.0,N
1629087495.4,286047001.4,N
1629087515.3,286047002.0,N
1629087535.1,286046999.8,N
1629087555.9,286047003.9,N
1629087575.7,286047002.9,N
1629087595.5,286047007.2,Y
1629087615.4,286047002.1,P
1629087635.2,286047002.5,P
1629087655.1,286046999.7,N
1629087656.0,286046999.7,N
1629087675.8,286047001.2,N
1629087695.6,286046998.2,N
1629087715.5,286046998.6,N
1629087735.3,286047000.4,N
1629087755.2,286047001.1,N
1629087775.9,286047000.0,N
1629087795.7,286046998.4,N
1629087815.6,286047001.1,N
1629087835.4,286046999.0,N
1629087855.2,286046996.6,N
1629087875.1,286046998.0,N
1629087876.0,286046998.0,N
1629087895.8,286046995.6,N
1629087915.7,286046993.6,Y
1629087935.5,286046995.4,P
1629087955.3,286046998.6,N
1629087975.2,286047002.0,N
1629087995.0,286047001.9,N
1629087995.9,286047001.9,N
1629088015.8,286047006.0,N
1629088035.6,286047007.0,N
1629088055.4,286047006.6,N
1629088075.3,286047004.6,N
1629088095.1,286047004.7,N
1629088115.8,286047006.7,N
1629088135.4,286047007.1,N
1629088155.2,286047006.3,N
1629088175.1,286047009.8,N
1629088176.0,286047009.8,N
1629088195.8,286047011.1,N
1629088215.6,286047009.8,N
1629088235.5,286047011.2,N
1629088255.3,286047012.0,N
1629088275.1,286047010.9,N
1629088295.9,286047011.4,N
1629088315.7,286047010.9,N
1629088335.6,286047013.2,N
1629088355.4,286047012.5,N
1629088375.2,286047016.2,Y
1629088395.1,286047011.3,P
1629088396.0,286047011.3,P
1629088415.8,286047013.7,P
1629088435.7,286047013.2,Y
1629088455.5,286047004.4,P
1629088475.3,286047005.9,N
1629088495.2,286047006.0,N
1629088515.0,286047004.8,N
1629088515.9,286047004.8,N
1629088535.8,286047006.4,N
1629088555.6,286047008.3,Y
1629088575.4,286047006.0,P
1629088595.3,286047005.9,P
1629088615.1,286047004.5,P
1629088635.9,286047006.8,Y
1629088655.7,286047001.8,P
1629088675.5,286047003.9,N
1629088695.4,286047001.3,N
1629088715.2,286047003.6,N
1629088735.1,286047002.9,N
1629088736.0,286047002.9,N
1629088755.8,286047004.5,Y
1629088775.6,286047003.4,P
1629088795.5,286047005.4,P
1629088815.3,286047005.8,P
1629088835.2,286047005.4,Y
1629088855.9,286047003.8,P
1629088875.7,286047004.2,P
1629088895.6,286047004.1,P
1629088915.4,286047004.0,Y
1629088935.2,286047001.1,P
1629088955.1,286046998.4,N
1629088956.0,286046998.4,N
1629088975.8,286046999.0,N
1629088995.7,286046998.5,N
1629089015.5,286047000.3,N
1629089035.3,286046999.8,N
1629089055.2,286047002.2,N
1629089075.0,286047001.1,N
1629089075.9,286047001.1,N
1629089095.7,286046998.2,N
1629089115.6,286047000.6,N
1629089135.4,286047002.6,N
1629089155.3,286046999.9,N
1629089175.1,286047002.5,N
1629089176.0,286047002.5,N
1629089195.8,286047003.1,N
1629089215.7,286047004.3,N
1629089235.5,286047002.1,N
1629089255.3,286047002.8,N
1629089275.2,286047002.1,N
1629089295.0,286047001.7,N
1629089295.9,286047001.7,N
1629089315.8,286047000.0,N
1629089335.6,286047000.7,N
1629089355.4,286047000.3,N
1629089375.3,286047001.7,N
1629089395.1,286047011.9,Y
1629089415.9,286046999.7,P
1629089435.7,286047001.0,N
1629089455.5,286046999.9,N
1629089475.4,286047000.5,N
1629089495.2,286047001.1,N
1629089515.0,286047001.1,N
1629089515.9,286047001.1,N
1629089535.8,286046997.1,Y
1629089555.6,286046997.4,P
1629089575.5,286046995.6,N
1629089595.3,286046995.4,N
1629089615.1,286046993.5,Y
1629089635.9,286046995.1,P
1629089655.7,286046992.1,P
1629089675.6,286046992.6,P
1629089695.4,286046991.9,Y
1629089715.2,286046998.4,P
1629089735.1,286046998.8,N
1629089736.0,286046998.8,N
1629089755.8,286046996.8,N
1629089775.7,286046994.8,Y
1629089795.5,286046997.5,P
1629089815.3,286046994.9,P
1629089835.2,286046992.3,P
1629089855.0,286046993.2,Y
1629089855.9,286046993.2,P
1629089875.8,286046998.6,N
1629089895.6,286047001.2,N
1629089915.4,286047000.0,N
1629089935.3,286046998.2,N
1629089955.1,286046999.2,N
1629089975.9,286046999.0,N
1629089995.3,286046998.5,N
